CW0464 Weather Reports


time (UTC)temp
C
wind
direction
speed
KPH
gust
KPH
rain 1hr
cm
rain 24hr
cm
rain mn
cm
humidity
%
barometer
mb
20260507023342 14 283 0.0 0.0 0.00 0.00 0.00 67 1024.2
20260507022827 14 284 0.0 0.0 0.00 0.00 0.00 66 1024.3
20260507022324 15 344 0.0 0.0 0.00 0.00 0.00 65 1024.2
20260507021833 15 345 0.0 0.0 0.00 0.00 0.00 65 1024.2
20260507021344 15 346 0.0 0.0 0.00 0.00 0.00 65 1024.1
20260507020821 15 347 0.0 0.0 0.00 0.00 0.00 64 1024.1
20260507020330 15 328 0.0 0.0 0.00 0.00 0.00 64 1024.1
20260507015901 15 329 0.0 0.0 0.00 0.00 0.00 64 1024.1
20260507015346 15 333 0.0 0.0 0.00 0.00 0.00 64 1024.0
20260507014835 15 360 0.0 0.0 0.00 0.00 0.00 63 1024.0
20260507014333 15 360 0.0 0.0 0.00 0.00 0.00 62 1024.0
20260507013820 15 31 0.0 0.0 0.00 0.00 0.00 62 1024.0
20260507013351 16 43 0.0 0.0 0.00 0.00 0.00 61 1024.0
20260507012902 16 32 0.0 0.0 0.00 0.00 0.00 61 1024.0
20260507012345 16 9 0.0 0.0 0.00 0.00 0.00 60 1024.0
20260507011827 16 25 0.0 0.0 0.00 0.00 0.00 59 1023.9
20260507011333 17 5 0.0 1.6 0.00 0.00 0.00 58 1023.9
20260507010841 17 334 0.0 1.6 0.00 0.00 0.00 58 1023.9
20260507010322 17 355 0.0 0.0 0.00 0.00 0.00 58 1024.0
20260507005829 17 310 0.0 0.0 0.00 0.00 0.00 57 1023.9
20260507005338 17 349 0.0 0.0 0.00 0.00 0.00 57 1023.9
20260507004850 17 141 0.0 6.4 0.00 0.00 0.00 58 1023.9
20260507004356 17 5 0.0 6.4 0.00 0.00 0.00 58 1023.9
20260507003822 17 355 0.0 3.2 0.00 0.00 0.00 57 1023.9
20260507003331 17 320 0.0 1.6 0.00 0.00 0.00 57 1023.9
20260507002828 17 17 0.0 6.4 0.00 0.00 0.00 58 1023.9
20260507002332 17 330 0.0 8.0 0.00 0.00 0.00 59 1023.9
20260507001823 17 304 0.0 8.0 0.00 0.00 0.00 59 1023.8
20260507001321 17 235 0.0 4.8 0.00 0.00 0.00 59 1023.7
20260507000831 17 360 0.0 8.0 0.00 0.00 0.00 60 1023.6
20260507000343 17 347 0.0 6.4 0.00 0.00 0.00 60 1023.5
20260506235830 17 284 0.0 6.4 0.00 0.00 0.00 59 1023.5
20260506235330 17 343 0.0 3.2 0.00 0.00 0.00 58 1023.4
20260506234848 17 333 0.0 3.2 0.00 0.00 0.00 59 1023.5
20260506234325 17 327 0.0 3.2 0.00 0.00 0.00 59 1023.4
20260506233833 17 261 0.0 3.2 0.00 0.00 0.00 59 1023.5
20260506233331 17 355 0.0 3.2 0.00 0.00 0.00 59 1023.4
20260506232911 18 9 0.0 3.2 0.00 0.00 0.00 57 1023.4
20260506232414 18 338 0.0 1.6 0.00 0.00 0.00 58 1023.5
20260506232331 18 338 0.0 1.6 0.00 0.00 0.00 58 1023.5
20260506231901 18 326 0.0 1.6 0.00 0.00 0.00 58 1023.5
20260506231347 18 47 0.0 4.8 0.00 0.00 0.00 59 1023.5
20260506230826 18 327 0.0 6.4 0.00 0.00 0.00 58 1023.5
20260506230334 18 319 0.0 4.8 0.00 0.00 0.00 59 1023.5
20260506225846 18 342 0.0 4.8 0.00 0.00 0.00 58 1023.5
20260506225323 18 333 0.0 12.9 0.00 0.00 0.00 58 1023.5
20260506224852 18 348 0.0 12.9 0.00 0.00 0.00 58 1023.5
20260506224342 18 344 0.0 20.9 0.00 0.00 0.00 59 1023.5
20260506223829 18 311 0.0 9.7 0.00 0.00 0.00 58 1023.5
20260506223328 18 257 0.0 4.8 0.00 0.00 0.00 60 1023.5
20260506222835 17 303 0.0 29.0 0.00 0.00 0.00 60 1023.6
20260506222344 17 317 3.2 29.0 0.00 0.00 0.00 59 1023.7
20260506221826 18 311 0.0 6.4 0.00 0.00 0.00 60 1023.7
20260506221330 18 309 0.0 16.1 0.00 0.00 0.00 60 1023.7
20260506220838 18 323 0.0 16.1 0.00 0.00 0.00 59 1023.7
20260506220338 18 317 0.0 6.4 0.00 0.00 0.00 60 1023.7
20260506215911 18 340 0.0 16.1 0.00 0.00 0.00 59 1023.7
20260506215340 18 294 0.0 16.1 0.00 0.00 0.00 60 1023.7
20260506214841 18 312 0.0 4.8 0.00 0.00 0.00 60 1023.7
20260506214328 18 261 0.0 12.9 0.00 0.00 0.00 60 1023.7
20260506213829 18 326 0.0 17.7 0.00 0.00 0.00 60 1023.6
20260506213339 19 273 0.0 4.8 0.00 0.00 0.00 59 1023.6
20260506212847 19 271 0.0 11.3 0.00 0.00 0.00 60 1023.7
20260506212334 17 265 0.0 12.9 0.00 0.00 0.00 61 1023.7
20260506211844 18 254 0.0 9.7 0.00 0.00 0.00 61 1023.7
20260506211321 18 296 1.6 6.4 0.00 0.00 0.00 59 1023.7
20260506210829 18 240 0.0 8.0 0.00 0.00 0.00 59 1023.7
20260506210328 18 330 0.0 8.0 0.00 0.00 0.00 61 1023.6
20260506205831 18 321 0.0 1.6 0.00 0.00 0.00 60 1023.7
20260506205359 18 325 0.0 8.0 0.00 0.00 0.00 61 1023.6
20260506204907 18 338 0.0 8.0 0.00 0.00 0.00 61 1023.7
20260506204406 18 250 0.0 12.9 0.00 0.00 0.00 60 1023.7
20260506203848 18 295 0.0 12.9 0.00 0.00 0.00 58 1023.6
20260506203329 18 329 0.0 19.3 0.00 0.00 0.00 60 1023.7
20260506202859 17 38 0.0 19.3 0.00 0.00 0.00 61 1023.7
20260506202344 18 24 0.0 12.9 0.00 0.00 0.00 57 1023.7
20260506201830 18 83 0.0 12.9 0.00 0.00 0.00 57 1023.8
20260506201330 18 13 0.0 1.6 0.00 0.03 0.00 60 1023.9
20260506200836 17 320 0.0 1.6 0.00 0.03 0.00 59 1023.9
20260506200326 17 24 0.0 1.6 0.00 0.03 0.00 60 1024.0
20260506195833 17 67 0.0 1.6 0.00 0.03 0.00 61 1023.9
20260506195322 18 38 0.0 0.0 0.00 0.03 0.00 59 1024.0
20260506194831 18 82 0.0 14.5 0.00 0.03 0.00 58 1024.0
20260506194340 17 65 0.0 14.5 0.00 0.03 0.00 61 1024.0
20260506193907 18 23 0.0 8.0 0.00 0.03 0.00 59 1023.9
20260506193336 18 54 0.0 4.8 0.00 0.03 0.00 60 1024.1
20260506192831 17 76 0.0 4.8 0.00 0.03 0.00 63 1024.1
20260506192321 16 52 0.0 4.8 0.00 0.03 0.00 66 1024.2
20260506191822 16 43 0.0 4.8 0.00 0.03 0.00 63 1024.2
20260506191401 16 360 0.0 3.2 0.00 0.03 0.00 64 1024.3
20260506190907 16 337 0.0 3.2 0.00 0.03 0.00 63 1024.2
20260506190348 16 315 0.0 0.0 0.00 0.03 0.00 65 1024.3
20260506185827 16 311 0.0 1.6 0.00 0.03 0.00 66 1024.3
20260506185337 16 338 0.0 6.4 0.00 0.03 0.00 65 1024.4
20260506184907 15 269 0.0 6.4 0.00 0.03 0.00 65 1024.4
20260506184337 16 323 0.0 1.6 0.00 0.03 0.00 63 1024.5
20260506183845 16 78 0.0 0.0 0.00 0.03 0.00 65 1024.5
20260506183344 16 324 0.0 0.0 0.00 0.03 0.00 64 1024.4
20260506182830 15 300 0.0 1.6 0.00 0.03 0.00 67 1024.5
20260506182336 15 323 0.0 1.6 0.00 0.03 0.00 66 1024.5
20260506181905 15 327 0.0 0.0 0.00 0.03 0.00 66 1024.4
20260506181829 15 327 0.0 0.0 0.00 0.03 0.00 66 1024.4
20260506181339 15 309 0.0 0.0 0.00 0.03 0.00 66 1024.6
20260506180830 15 265 0.0 1.6 0.00 0.03 0.00 67 1024.6
20260506180330 15 344 0.0 3.2 0.00 0.03 0.00 66 1024.6
20260506175841 14 311 0.0 3.2 0.00 0.03 0.00 68 1024.6
20260506175348 14 280 0.0 1.6 0.00 0.03 0.00 68 1024.6
20260506174827 13 355 0.0 1.6 0.00 0.03 0.00 68 1024.6
20260506174337 14 266 0.0 1.6 0.00 0.03 0.00 68 1024.6
20260506173845 13 317 0.0 0.0 0.00 0.03 0.00 69 1024.6
20260506173327 13 256 0.0 8.0 0.00 0.03 0.00 70 1024.6
20260506172848 12 248 0.0 8.0 0.00 0.03 0.00 71 1024.6
20260506172336 13 347 0.0 1.6 0.00 0.03 0.00 71 1024.5
20260506171904 12 360 0.0 1.6 0.00 0.03 0.00 72 1024.5
20260506171827 12 360 0.0 1.6 0.00 0.03 0.00 72 1024.5
20260506171344 12 321 0.0 8.0 0.00 0.03 0.00 71 1024.5
20260506170848 12 336 0.0 8.0 0.00 0.03 0.03 71 1024.5
20260506170359 12 308 0.0 4.8 0.00 0.03 0.03 73 1024.5
20260506165825 12 331 0.0 4.8 0.00 0.03 0.03 74 1024.5
20260506165414 11 315 0.0 1.6 0.00 0.03 0.03 75 1024.5
20260506164842 11 325 0.0 1.6 0.00 0.03 0.03 74 1024.6
20260506164335 11 321 0.0 3.2 0.00 0.03 0.03 74 1024.7
20260506163823 11 318 0.0 3.2 0.00 0.03 0.03 73 1024.7
20260506163356 11 320 0.0 1.6 0.00 0.03 0.03 73 1024.8
20260506162856 11 318 0.0 3.2 0.00 0.03 0.03 72 1024.7
20260506162323 12 313 0.0 0.0 0.00 0.03 0.03 69 1024.6
20260506161826 12 360 0.0 0.0 0.00 0.03 0.03 71 1024.6
20260506161329 12 90 0.0 0.0 0.00 0.03 0.03 70 1024.6
20260506160838 12 17 0.0 0.0 0.00 0.03 0.03 69 1024.6
20260506160350 11 200 0.0 0.0 0.00 0.03 0.03 69 1024.6
20260506155828 11 278 0.0 1.6 0.00 0.03 0.03 71 1024.6
20260506155354 11 260 0.0 1.6 0.00 0.03 0.03 70 1024.6
20260506154824 11 226 0.0 3.2 0.00 0.03 0.03 70 1024.6
20260506154351 11 205 0.0 3.2 0.00 0.03 0.03 71 1024.6
20260506153826 11 224 0.0 1.6 0.00 0.03 0.03 71 1024.6
20260506153338 11 142 0.0 1.6 0.00 0.03 0.03 72 1024.6
20260506152846 11 42 0.0 0.0 0.00 0.03 0.03 75 1024.7
20260506152400 11 91 0.0 0.0 0.00 0.03 0.03 76 1024.6
20260506151850 11 95 0.0 0.0 0.00 0.03 0.03 76 1024.7
20260506151336 10 86 0.0 0.0 0.00 0.03 0.03 76 1024.6
20260506150834 10 79 0.0 0.0 0.00 0.03 0.03 77 1024.5
20260506150346 10 82 0.0 0.0 0.00 0.03 0.03 78 1024.5
20260506145833 10 82 0.0 0.0 0.00 0.03 0.03 79 1024.5
20260506145343 10 85 0.0 0.0 0.00 0.03 0.03 79 1024.5
20260506144823 10 73 0.0 0.0 0.00 0.03 0.03 80 1024.5
20260506144332 9 44 0.0 0.0 0.00 0.03 0.03 80 1024.5
20260506143836 9 84 0.0 0.0 0.00 0.03 0.03 79 1024.4
20260506143326 9 39 0.0 0.0 0.00 0.03 0.03 81 1024.4
20260506142852 8 180 0.0 0.0 0.00 0.03 0.03 80 1024.3
20260506142340 8 307 0.0 0.0 0.00 0.03 0.03 81 1024.3
20260506141843 8 40 0.0 0.0 0.00 0.03 0.03 82 1024.3
20260506141330 8 34 0.0 0.0 0.00 0.05 0.03 82 1024.2
20260506140830 8 246 0.0 0.0 0.00 0.05 0.03 82 1023.9
20260506140411 8 360 0.0 0.0 0.00 0.05 0.03 83 1024.1
20260506135829 7 117 0.0 0.0 0.00 0.05 0.03 84 1024.1
20260506135338 7 122 0.0 0.0 0.00 0.05 0.03 85 1024.1
20260506134853 6 198 0.0 0.0 0.00 0.05 0.03 86 1024.0
20260506134343 6 244 0.0 0.0 0.00 0.05 0.03 87 1024.0
20260506133821 6 243 0.0 0.0 0.00 0.05 0.03 87 1024.0
20260506133327 6 360 0.0 0.0 0.00 0.05 0.03 87 1024.0
20260506132833 5 360 0.0 0.0 0.00 0.05 0.03 86 1023.9
20260506132322 5 360 0.0 0.0 0.00 0.05 0.03 85 1024.0
20260506131831 5 360 0.0 0.0 0.00 0.05 0.03 85 1023.9
20260506131343 6 360 0.0 0.0 0.00 0.05 0.03 84 1023.9
20260506130820 6 360 0.0 0.0 0.00 0.05 0.03 84 1023.9
20260506130332 6 360 0.0 0.0 0.00 0.05 0.03 84 1023.8
20260506125836 6 360 0.0 0.0 0.00 0.05 0.03 83 1023.7
20260506125322 6 360 0.0 0.0 0.00 0.05 0.03 83 1023.6
20260506124854 7 360 0.0 0.0 0.00 0.05 0.03 83 1023.5
20260506124328 7 360 0.0 0.0 0.00 0.05 0.03 83 1023.5
20260506123906 7 360 0.0 0.0 0.00 0.05 0.03 83 1023.5
20260506123355 7 360 0.0 0.0 0.00 0.05 0.03 82 1023.5
20260506122830 7 342 0.0 0.0 0.00 0.05 0.03 83 1023.4
20260506122340 7 360 0.0 0.0 0.00 0.05 0.03 83 1023.5
20260506121832 7 360 0.0 0.0 0.00 0.05 0.03 82 1023.4
20260506121332 7 360 0.0 0.0 0.00 0.05 0.03 82 1023.4
20260506120841 7 360 0.0 0.0 0.00 0.05 0.03 82 1023.4
20260506120331 7 360 0.0 0.0 0.00 0.05 0.03 82 1023.4
20260506115843 7 360 0.0 0.0 0.00 0.05 0.03 82 1023.4
20260506115329 7 360 0.0 0.0 0.00 0.05 0.03 82 1023.5
20260506114855 7 360 0.0 0.0 0.00 0.05 0.03 81 1023.5
20260506114332 7 360 0.0 0.0 0.00 0.05 0.03 81 1023.5
20260506113900 7 360 0.0 0.0 0.00 0.05 0.03 81 1023.4
20260506113358 7 360 0.0 0.0 0.00 0.05 0.03 81 1023.5
20260506112833 7 360 0.0 0.0 0.00 0.05 0.03 81 1023.4
20260506112324 7 360 0.0 0.0 0.00 0.05 0.03 81 1023.2
20260506111836 7 360 0.0 0.0 0.00 0.05 0.03 81 1023.2
20260506111333 7 360 0.0 0.0 0.00 0.05 0.03 81 1023.2
20260506110821 7 360 0.0 0.0 0.00 0.05 0.03 81 1023.2
20260506110411 7 360 0.0 0.0 0.00 0.05 0.03 81 1023.2
20260506105841 7 360 0.0 0.0 0.00 0.05 0.03 80 1023.2
20260506105324 7 360 0.0 0.0 0.00 0.05 0.03 80 1023.2
20260506104824 7 360 0.0 0.0 0.00 0.05 0.03 80 1023.1
20260506104405 7 360 0.0 0.0 0.00 0.05 0.03 80 1023.1
20260506103848 7 360 0.0 0.0 0.00 0.05 0.03 80 1023.1
20260506103339 7 360 0.0 0.0 0.00 0.05 0.03 81 1023.0
20260506102827 7 360 0.0 0.0 0.00 0.05 0.03 81 1023.0
20260506102328 7 360 0.0 0.0 0.00 0.05 0.03 81 1023.1
20260506101835 7 360 0.0 0.0 0.00 0.05 0.03 80 1023.1
20260506101343 7 360 0.0 0.0 0.00 0.05 0.03 81 1023.0
20260506100832 7 360 0.0 0.0 0.00 0.05 0.03 81 1023.0
20260506100334 7 360 0.0 0.0 0.00 0.05 0.03 81 1023.0
20260506095836 7 360 0.0 0.0 0.00 0.05 0.03 81 1022.9
20260506095322 7 360 0.0 0.0 0.00 0.05 0.03 81 1022.8
20260506094910 7 360 0.0 0.0 0.00 0.05 0.03 81 1022.9
20260506094334 7 360 0.0 0.0 0.00 0.05 0.03 81 1022.9
20260506093900 7 360 0.0 0.0 0.00 0.05 0.03 81 1022.9
20260506093350 7 360 0.0 0.0 0.00 0.05 0.03 81 1022.9
20260506092828 7 360 0.0 0.0 0.00 0.05 0.03 81 1022.8
20260506092337 7 360 0.0 1.6 0.00 0.05 0.03 81 1022.8
20260506091829 7 360 0.0 1.6 0.00 0.05 0.03 81 1022.8
20260506091328 7 360 0.0 0.0 0.00 0.05 0.03 82 1022.9
20260506090837 7 360 0.0 0.0 0.00 0.05 0.03 82 1022.9
20260506090328 7 360 0.0 0.0 0.00 0.05 0.03 83 1022.9
20260506085827 7 360 0.0 0.0 0.00 0.05 0.03 83 1022.8
20260506085405 7 360 0.0 0.0 0.00 0.05 0.03 83 1022.8
20260506084833 7 360 0.0 0.0 0.00 0.05 0.03 83 1022.8
20260506084321 7 360 0.0 0.0 0.00 0.05 0.03 83 1022.9
20260506083821 7 360 0.0 0.0 0.00 0.05 0.03 83 1022.9
20260506083333 7 360 0.0 0.0 0.00 0.05 0.03 83 1022.8
20260506082820 7 360 0.0 0.0 0.00 0.05 0.03 83 1022.8
20260506082348 7 360 0.0 0.0 0.00 0.05 0.03 83 1022.8
20260506081828 6 360 0.0 0.0 0.00 0.05 0.03 84 1022.8
20260506081400 6 360 0.0 0.0 0.00 0.05 0.03 84 1022.8
20260506080827 6 360 0.0 0.0 0.00 0.05 0.03 84 1022.8
20260506080327 6 223 0.0 0.0 0.00 0.05 0.03 84 1022.8
20260506073357 7 360 0.0 0.0 0.00 0.05 0.03 83 1022.7
20260506072908 7 360 0.0 0.0 0.00 0.05 0.03 82 1022.6
20260506072324 7 360 0.0 0.0 0.00 0.05 0.03 82 1022.6
20260506071834 7 360 0.0 0.0 0.00 0.05 0.03 82 1022.6
20260506071346 7 360 0.0 0.0 0.00 0.05 0.03 82 1022.5
20260506070823 7 360 0.0 0.0 0.00 0.05 0.03 82 1022.5
20260506070333 7 360 0.0 0.0 0.00 0.05 0.03 83 1022.5
20260506062334 6 360 0.0 0.0 0.00 0.05 0.03 82 1022.0
20260506061847 6 360 0.0 0.0 0.00 0.05 0.03 82 1022.0
20260506061333 6 360 0.0 0.0 0.00 0.05 0.03 82 1022.0
20260506060902 7 360 0.0 0.0 0.00 0.05 0.03 82 1021.9
20260506060324 7 360 0.0 0.0 0.00 0.05 0.03 82 1021.9
20260506051341 7 360 0.0 1.6 0.00 0.05 0.03 82 1021.6
20260506050849 7 360 0.0 0.0 0.00 0.05 0.03 82 1021.6
20260506050329 7 360 0.0 0.0 0.00 0.05 0.03 82 1021.6
20260506044831 7 360 0.0 0.0 0.00 0.05 0.03 81 1021.6
20260506044335 7 360 0.0 0.0 0.00 0.05 0.03 81 1021.4
20260506043836 7 360 0.0 9.7 0.00 0.05 0.03 81 1021.4
20260506043327 7 360 0.0 9.7 0.00 0.05 0.03 82 1021.4
20260506042855 7 360 0.0 0.0 0.00 0.05 0.03 81 1021.3
20260506042341 7 360 0.0 0.0 0.00 0.05 0.03 81 1021.2
20260506041825 7 360 0.0 0.0 0.00 0.05 0.03 81 1021.2
20260506041401 7 360 0.0 0.0 0.00 0.05 0.03 81 1021.1
20260506040827 7 360 0.0 0.0 0.00 0.05 0.03 81 1021.1
20260506040340 7 360 0.0 0.0 0.00 0.05 0.03 81 1021.1
20260506035836 7 360 0.0 0.0 0.00 0.05 0.03 81 1021.0
20260506035325 7 360 0.0 0.0 0.00 0.05 0.03 80 1021.0
20260506034828 7 360 0.0 0.0 0.00 0.05 0.03 81 1020.9
20260506034334 7 360 0.0 0.0 0.00 0.05 0.03 81 1020.8
20260506033825 7 360 0.0 0.0 0.00 0.05 0.03 81 1020.7
20260506033325 7 360 0.0 0.0 0.00 0.05 0.03 80 1020.7
20260506032838 7 360 0.0 0.0 0.00 0.05 0.03 80 1020.6
20260506032325 7 360 0.0 0.0 0.00 0.05 0.03 80 1020.6
20260506031828 7 360 0.0 0.0 0.00 0.05 0.03 80 1020.5
20260506031336 7 360 0.0 0.0 0.00 0.05 0.03 79 1020.4
20260506030825 7 360 0.0 0.0 0.00 0.05 0.03 79 1020.3
20260506030327 7 360 0.0 0.0 0.00 0.05 0.03 79 1020.4
20260506025828 7 360 0.0 0.0 0.00 0.05 0.03 79 1020.3
20260506025337 7 360 0.0 0.0 0.00 0.05 0.03 79 1020.2
20260506024837 7 360 0.0 1.6 0.00 0.05 0.03 79 1020.2
20260506024341 7 360 0.0 1.6 0.00 0.05 0.03 79 1020.0
20260506023828 7 360 0.0 0.0 0.00 0.05 0.03 79 1019.9